Year,Month,Day,Hour,Minute,Value (Times are PST for temperature in C)
2012,03,23,00,00,3.20
2012,03,23,00,01,3.20
2012,03,23,00,02,3.20
2012,03,23,00,03,3.20
2012,03,23,00,04,3.20
2012,03,23,00,05,3.20
2012,03,23,00,06,3.20
2012,03,23,00,07,3.10
2012,03,23,00,08,3.10
2012,03,23,00,09,3.10
2012,03,23,00,10,3.10
2012,03,23,00,11,3.10
2012,03,23,00,12,3.10
2012,03,23,00,13,3.10
2012,03,23,00,14,3.10
2012,03,23,00,15,3.10
2012,03,23,00,16,3.10
2012,03,23,00,17,3.10
2012,03,23,00,18,3.10
2012,03,23,00,19,3.10
2012,03,23,00,20,3.10
2012,03,23,00,21,3.10
2012,03,23,00,22,3.10
2012,03,23,00,23,3.10
2012,03,23,00,24,3.10
2012,03,23,00,25,3.10
2012,03,23,00,26,3.10
2012,03,23,00,27,3.10
2012,03,23,00,28,3.10
2012,03,23,00,29,3.10
2012,03,23,00,30,3.10
2012,03,23,00,31,3.10
2012,03,23,00,32,3.10
2012,03,23,00,33,3.10
2012,03,23,00,34,3.10
2012,03,23,00,35,3.10
2012,03,23,00,36,3.10
2012,03,23,00,37,3.10
2012,03,23,00,38,3.10
2012,03,23,00,39,3.10
2012,03,23,00,40,3.10
2012,03,23,00,41,3.10
2012,03,23,00,42,3.00
2012,03,23,00,43,3.00
2012,03,23,00,44,3.00
2012,03,23,00,45,3.00
2012,03,23,00,46,3.00
2012,03,23,00,47,3.00
2012,03,23,00,48,3.00
2012,03,23,00,49,3.00
2012,03,23,00,50,3.00
2012,03,23,00,51,3.10
2012,03,23,00,52,3.10
2012,03,23,00,53,3.10
2012,03,23,00,54,3.10
2012,03,23,00,55,3.10
2012,03,23,00,56,3.10
2012,03,23,00,57,3.10
2012,03,23,00,58,3.10
2012,03,23,00,59,3.10
2012,03,23,01,00,3.10
2012,03,23,01,01,3.10
2012,03,23,01,02,3.10
2012,03,23,01,03,3.10
2012,03,23,01,04,3.10
2012,03,23,01,05,3.10
2012,03,23,01,06,3.10
2012,03,23,01,07,3.10
2012,03,23,01,08,3.10
2012,03,23,01,09,3.10
2012,03,23,01,10,3.10
2012,03,23,01,11,3.00
2012,03,23,01,12,3.00
2012,03,23,01,13,3.00
2012,03,23,01,14,3.00
2012,03,23,01,15,3.00
2012,03,23,01,16,3.00
2012,03,23,01,17,3.00
2012,03,23,01,18,3.00
2012,03,23,01,19,3.00
2012,03,23,01,20,3.00
2012,03,23,01,21,3.00
2012,03,23,01,22,3.00
2012,03,23,01,23,3.00
2012,03,23,01,24,3.00
2012,03,23,01,25,3.00
2012,03,23,01,26,3.00
2012,03,23,01,27,3.00
2012,03,23,01,28,3.00
2012,03,23,01,29,3.00
2012,03,23,01,30,3.00
2012,03,23,01,31,3.00
2012,03,23,01,32,3.00
2012,03,23,01,33,3.00
2012,03,23,01,34,3.00
2012,03,23,01,35,2.90
2012,03,23,01,36,2.90
2012,03,23,01,37,2.90
2012,03,23,01,38,2.90
2012,03,23,01,39,2.90
2012,03,23,01,40,2.90
2012,03,23,01,41,2.90
2012,03,23,01,42,2.90
2012,03,23,01,43,2.90
2012,03,23,01,44,2.90
2012,03,23,01,45,2.90
2012,03,23,01,46,2.90
2012,03,23,01,47,2.90
2012,03,23,01,48,2.90
2012,03,23,01,49,2.80
2012,03,23,01,50,2.80
2012,03,23,01,51,2.80
2012,03,23,01,52,2.80
2012,03,23,01,53,2.80
2012,03,23,01,54,2.80
2012,03,23,01,55,2.80
2012,03,23,01,56,2.80
2012,03,23,01,57,2.80
2012,03,23,01,58,2.80
2012,03,23,01,59,2.80
2012,03,23,02,00,2.80
2012,03,23,02,01,2.80
2012,03,23,02,02,2.80
2012,03,23,02,03,2.80
2012,03,23,02,04,2.80
2012,03,23,02,05,2.80
2012,03,23,02,06,2.80
2012,03,23,02,07,2.70
2012,03,23,02,08,2.70
2012,03,23,02,09,2.70
2012,03,23,02,10,2.70
2012,03,23,02,11,2.70
2012,03,23,02,12,2.70
2012,03,23,02,13,2.70
2012,03,23,02,14,2.70
2012,03,23,02,15,2.70
2012,03,23,02,16,2.70
2012,03,23,02,17,2.70
2012,03,23,02,18,2.60
2012,03,23,02,19,2.60
2012,03,23,02,20,2.60
2012,03,23,02,21,2.60
2012,03,23,02,22,2.60
2012,03,23,02,23,2.60
2012,03,23,02,24,2.60
2012,03,23,02,25,2.50
2012,03,23,02,26,2.50
2012,03,23,02,27,2.50
2012,03,23,02,28,2.50
2012,03,23,02,29,2.40
2012,03,23,02,30,2.40
2012,03,23,02,31,2.40
2012,03,23,02,32,2.40
2012,03,23,02,33,2.40
2012,03,23,02,34,2.40
2012,03,23,02,35,2.30
2012,03,23,02,36,2.30
2012,03,23,02,37,2.30
2012,03,23,02,38,2.30
2012,03,23,02,39,2.30
2012,03,23,02,40,2.30
2012,03,23,02,41,2.30
2012,03,23,02,42,2.20
2012,03,23,02,43,2.20
2012,03,23,02,44,2.20
2012,03,23,02,45,2.20
2012,03,23,02,46,2.20
2012,03,23,02,47,2.20
2012,03,23,02,48,2.20
2012,03,23,02,49,2.10
2012,03,23,02,50,2.10
2012,03,23,02,51,2.10
2012,03,23,02,52,2.10
2012,03,23,02,53,2.10
2012,03,23,02,54,2.00
2012,03,23,02,55,2.00
2012,03,23,02,56,2.00
2012,03,23,02,57,2.00
2012,03,23,02,58,1.90
2012,03,23,02,59,1.90
2012,03,23,03,00,1.90
2012,03,23,03,01,1.90
2012,03,23,03,02,1.90
2012,03,23,03,03,1.80
2012,03,23,03,04,1.80
2012,03,23,03,05,1.80
2012,03,23,03,06,1.80
2012,03,23,03,07,1.80
2012,03,23,03,08,1.80
2012,03,23,03,09,1.80
2012,03,23,03,10,1.80
2012,03,23,03,11,1.80
2012,03,23,03,12,1.70
2012,03,23,03,13,1.70
2012,03,23,03,14,1.70
2012,03,23,03,15,1.70
2012,03,23,03,16,1.70
2012,03,23,03,17,1.60
2012,03,23,03,18,1.60
2012,03,23,03,19,1.60
2012,03,23,03,20,1.60
2012,03,23,03,21,1.50
2012,03,23,03,22,1.50
2012,03,23,03,23,1.50
2012,03,23,03,24,1.40
2012,03,23,03,25,1.40
2012,03,23,03,26,1.30
2012,03,23,03,27,1.30
2012,03,23,03,28,1.30
2012,03,23,03,29,1.30
2012,03,23,03,30,1.30
2012,03,23,03,31,1.30
2012,03,23,03,32,1.30
2012,03,23,03,33,1.30
2012,03,23,03,34,1.30
2012,03,23,03,35,1.30
2012,03,23,03,36,1.30
2012,03,23,03,37,1.30
2012,03,23,03,38,1.30
2012,03,23,03,39,1.20
2012,03,23,03,40,1.20
2012,03,23,03,41,1.20
2012,03,23,03,42,1.10
2012,03,23,03,43,1.10
2012,03,23,03,44,1.10
2012,03,23,03,45,1.10
2012,03,23,03,46,1.00
2012,03,23,03,47,1.00
2012,03,23,03,48,1.00
2012,03,23,03,49,0.90
2012,03,23,03,50,0.90
2012,03,23,03,51,0.90
2012,03,23,03,52,0.90
2012,03,23,03,53,0.90
2012,03,23,03,54,0.90
2012,03,23,03,55,0.90
2012,03,23,03,56,1.00
2012,03,23,03,57,1.00
2012,03,23,03,58,1.00
2012,03,23,03,59,1.00
2012,03,23,04,00,1.10
2012,03,23,04,01,1.10
2012,03,23,04,02,1.00
2012,03,23,04,03,1.00
2012,03,23,04,04,1.00
2012,03,23,04,05,1.00
2012,03,23,04,06,1.00
2012,03,23,04,07,0.90
2012,03,23,04,08,0.90
2012,03,23,04,09,0.90
2012,03,23,04,10,0.80
2012,03,23,04,11,0.80
2012,03,23,04,12,0.80
2012,03,23,04,13,0.70
2012,03,23,04,14,0.70
2012,03,23,04,15,0.70
2012,03,23,04,16,0.60
2012,03,23,04,17,0.60
2012,03,23,04,18,0.60
2012,03,23,04,19,0.60
2012,03,23,04,20,0.50
2012,03,23,04,21,0.50
2012,03,23,04,22,0.40
2012,03,23,04,23,0.40
2012,03,23,04,24,0.40
2012,03,23,04,25,0.40
2012,03,23,04,26,0.40
2012,03,23,04,27,0.40
2012,03,23,04,28,0.40
2012,03,23,04,29,0.30
2012,03,23,04,30,0.30
2012,03,23,04,31,0.30
2012,03,23,04,32,0.30
2012,03,23,04,33,0.30
2012,03,23,04,34,0.20
2012,03,23,04,35,0.20
2012,03,23,04,36,0.20
2012,03,23,04,37,0.20
2012,03,23,04,38,0.20
2012,03,23,04,39,0.20
2012,03,23,04,40,0.20
2012,03,23,04,41,0.20
2012,03,23,04,42,0.20
2012,03,23,04,43,0.20
2012,03,23,04,44,0.20
2012,03,23,04,45,0.20
2012,03,23,04,46,0.20
2012,03,23,04,47,0.20
2012,03,23,04,48,0.20
2012,03,23,04,49,0.20
2012,03,23,04,50,0.10
2012,03,23,04,51,0.10
2012,03,23,04,52,0.10
2012,03,23,04,53,0.10
2012,03,23,04,54,0.10
2012,03,23,04,55,0.10
2012,03,23,04,56,0.10
2012,03,23,04,57,0.10
2012,03,23,04,58,0.10
2012,03,23,04,59,0.10
2012,03,23,05,00,0.10
2012,03,23,05,01,0.00
2012,03,23,05,02,0.00
2012,03,23,05,03,-0.10
2012,03,23,05,04,-0.10
2012,03,23,05,05,-0.10
2012,03,23,05,06,-0.10
2012,03,23,05,07,-0.10
2012,03,23,05,08,-0.10
2012,03,23,05,09,-0.10
2012,03,23,05,10,-0.20
2012,03,23,05,11,-0.20
2012,03,23,05,12,-0.20
2012,03,23,05,13,-0.20
2012,03,23,05,14,-0.20
2012,03,23,05,15,-0.20
2012,03,23,05,16,-0.20
2012,03,23,05,17,-0.20
2012,03,23,05,18,-0.20
2012,03,23,05,19,-0.20
2012,03,23,05,20,-0.30
2012,03,23,05,21,-0.20
2012,03,23,05,22,-0.30
2012,03,23,05,23,-0.30
2012,03,23,05,24,-0.30
2012,03,23,05,25,-0.30
2012,03,23,05,26,-0.30
2012,03,23,05,27,-0.30
2012,03,23,05,28,-0.30
2012,03,23,05,29,-0.40
2012,03,23,05,30,-0.40
2012,03,23,05,31,-0.40
2012,03,23,05,32,-0.40
2012,03,23,05,33,-0.40
2012,03,23,05,34,-0.40
2012,03,23,05,35,-0.40
2012,03,23,05,36,-0.40
2012,03,23,05,37,-0.50
2012,03,23,05,38,-0.50
2012,03,23,05,39,-0.50
2012,03,23,05,40,-0.50
2012,03,23,05,41,-0.50
2012,03,23,05,42,-0.50
2012,03,23,05,43,-0.50
2012,03,23,05,44,-0.50
2012,03,23,05,45,-0.50
2012,03,23,05,46,-0.50
2012,03,23,05,47,-0.50
2012,03,23,05,48,-0.50
2012,03,23,05,49,-0.50
2012,03,23,05,50,-0.50
2012,03,23,05,51,-0.50
2012,03,23,05,52,-0.50
2012,03,23,05,53,-0.50
2012,03,23,05,54,-0.60
2012,03,23,05,55,-0.60
2012,03,23,05,56,-0.60
2012,03,23,05,57,-0.60
2012,03,23,05,58,-0.60
2012,03,23,05,59,-0.60
2012,03,23,06,00,-0.60
2012,03,23,06,01,-0.50
2012,03,23,06,02,-0.50
2012,03,23,06,03,-0.50
2012,03,23,06,04,-0.50
2012,03,23,06,05,-0.40
2012,03,23,06,06,-0.40
2012,03,23,06,07,-0.40
2012,03,23,06,08,-0.40
2012,03,23,06,09,-0.30
2012,03,23,06,10,-0.30
2012,03,23,06,11,-0.30
2012,03,23,06,12,-0.30
2012,03,23,06,13,-0.30
2012,03,23,06,14,-0.30
2012,03,23,06,15,-0.30
2012,03,23,06,16,-0.30
2012,03,23,06,17,-0.30
2012,03,23,06,18,-0.30
2012,03,23,06,19,-0.30
2012,03,23,06,20,-0.30
2012,03,23,06,21,-0.20
2012,03,23,06,22,-0.20
2012,03,23,06,23,-0.20
2012,03,23,06,24,-0.20
2012,03,23,06,25,-0.20
2012,03,23,06,26,-0.20
2012,03,23,06,27,-0.20
2012,03,23,06,28,-0.20
2012,03,23,06,29,-0.20
2012,03,23,06,30,-0.20
2012,03,23,06,31,-0.20
2012,03,23,06,32,-0.20
2012,03,23,06,33,-0.20
2012,03,23,06,34,-0.20
2012,03,23,06,35,-0.20
2012,03,23,06,36,-0.20
2012,03,23,06,37,-0.10
2012,03,23,06,38,-0.10
2012,03,23,06,39,-0.10
2012,03,23,06,40,-0.10
2012,03,23,06,41,-0.10
2012,03,23,06,42,-0.10
2012,03,23,06,43,-0.10
2012,03,23,06,44,-0.10
2012,03,23,06,45,-0.10
2012,03,23,06,46,-0.10
2012,03,23,06,47,-0.10
2012,03,23,06,48,-0.10
2012,03,23,06,49,-0.20
2012,03,23,06,50,-0.20
2012,03,23,06,51,-0.20
2012,03,23,06,52,-0.20
2012,03,23,06,53,-0.20
2012,03,23,06,54,-0.20
2012,03,23,06,55,-0.20
2012,03,23,06,56,-0.30
2012,03,23,06,57,-0.30
2012,03,23,06,58,-0.30
2012,03,23,06,59,-0.30
2012,03,23,07,00,-0.30
2012,03,23,07,01,-0.30
2012,03,23,07,02,-0.30
2012,03,23,07,03,-0.30
2012,03,23,07,04,-0.30
2012,03,23,07,05,-0.30
2012,03,23,07,06,-0.40
2012,03,23,07,07,-0.40
2012,03,23,07,08,-0.40
2012,03,23,07,09,-0.40
2012,03,23,07,10,-0.40
2012,03,23,07,11,-0.50
2012,03,23,07,12,-0.50
2012,03,23,07,13,-0.50
2012,03,23,07,14,-0.50
2012,03,23,07,15,-0.50
2012,03,23,07,16,-0.50
2012,03,23,07,17,-0.60
2012,03,23,07,18,-0.60
2012,03,23,07,19,-0.60
2012,03,23,07,20,-0.60
2012,03,23,07,21,-0.60
2012,03,23,07,22,-0.60
2012,03,23,07,23,-0.60
2012,03,23,07,24,-0.60
2012,03,23,07,25,-0.60
2012,03,23,07,26,-0.60
2012,03,23,07,27,-0.50
2012,03,23,07,28,-0.50
2012,03,23,07,29,-0.50
2012,03,23,07,30,-0.50
2012,03,23,07,31,-0.40
2012,03,23,07,32,-0.40
2012,03,23,07,33,-0.40
2012,03,23,07,34,-0.40
2012,03,23,07,35,-0.30
2012,03,23,07,36,-0.30
2012,03,23,07,37,-0.30
2012,03,23,07,38,-0.30
2012,03,23,07,39,-0.30
2012,03,23,07,40,-0.30
2012,03,23,07,41,-0.30
2012,03,23,07,42,-0.30
2012,03,23,07,43,-0.30
2012,03,23,07,44,-0.30
2012,03,23,07,45,-0.30
2012,03,23,07,46,-0.20
2012,03,23,07,47,-0.20
2012,03,23,07,48,-0.20
2012,03,23,07,49,-0.20
2012,03,23,07,50,-0.10
2012,03,23,07,51,-0.10
2012,03,23,07,52,-0.10
2012,03,23,07,53,0.00
2012,03,23,07,54,0.00
2012,03,23,07,55,0.10
2012,03,23,07,56,0.10
2012,03,23,07,57,0.10
2012,03,23,07,58,0.20
2012,03,23,07,59,0.20
2012,03,23,08,00,0.20
2012,03,23,08,01,0.20
2012,03,23,08,02,0.20
2012,03,23,08,03,0.30
2012,03,23,08,04,0.30
2012,03,23,08,05,0.30
2012,03,23,08,06,0.30
2012,03,23,08,07,0.30
2012,03,23,08,08,0.30
2012,03,23,08,09,0.40
2012,03,23,08,10,0.40
2012,03,23,08,11,0.40
2012,03,23,08,12,0.40
2012,03,23,08,13,0.40
2012,03,23,08,14,0.50
2012,03,23,08,15,0.50
2012,03,23,08,16,0.50
2012,03,23,08,17,0.50
2012,03,23,08,18,0.60
2012,03,23,08,19,0.60
2012,03,23,08,20,0.60
2012,03,23,08,21,0.70
2012,03,23,08,22,0.70
2012,03,23,08,23,0.80
2012,03,23,08,24,0.90
2012,03,23,08,25,1.00
2012,03,23,08,26,1.00
2012,03,23,08,27,1.10
2012,03,23,08,28,1.20
2012,03,23,08,29,1.20
2012,03,23,08,30,1.20
2012,03,23,08,31,1.30
2012,03,23,08,32,1.30
2012,03,23,08,33,1.30
2012,03,23,08,34,1.40
2012,03,23,08,35,1.40
2012,03,23,08,36,1.50
2012,03,23,08,37,1.70
2012,03,23,08,38,1.80
2012,03,23,08,39,1.80
2012,03,23,08,40,1.90
2012,03,23,08,41,2.00
2012,03,23,08,42,2.00
2012,03,23,08,43,2.10
2012,03,23,08,44,2.10
2012,03,23,08,45,2.10
2012,03,23,08,46,2.10
2012,03,23,08,47,2.20
2012,03,23,08,48,2.20
2012,03,23,08,49,2.20
2012,03,23,08,50,2.30
2012,03,23,08,51,2.30
2012,03,23,08,52,2.30
2012,03,23,08,53,2.40
2012,03,23,08,54,2.40
2012,03,23,08,55,2.50
2012,03,23,08,56,2.60
2012,03,23,08,57,2.60
2012,03,23,08,58,2.60
2012,03,23,08,59,2.70
2012,03,23,09,00,2.80
2012,03,23,09,01,2.80
2012,03,23,09,02,2.80
2012,03,23,09,03,2.90
2012,03,23,09,04,2.90
2012,03,23,09,05,3.00
2012,03,23,09,06,3.10
2012,03,23,09,07,3.10
2012,03,23,09,08,3.10
2012,03,23,09,09,3.20
2012,03,23,09,10,3.20
2012,03,23,09,11,3.20
2012,03,23,09,12,3.20
2012,03,23,09,13,3.20
2012,03,23,09,14,3.20
2012,03,23,09,15,3.20
2012,03,23,09,16,3.20
2012,03,23,09,17,3.20
2012,03,23,09,18,3.10
2012,03,23,09,19,3.10
2012,03,23,09,20,3.20
2012,03,23,09,21,3.20
2012,03,23,09,22,3.10
2012,03,23,09,23,3.10
2012,03,23,09,24,3.10
2012,03,23,09,25,3.10
2012,03,23,09,26,3.10
2012,03,23,09,27,3.10
2012,03,23,09,28,3.10
2012,03,23,09,29,3.10
2012,03,23,09,30,3.20
2012,03,23,09,31,3.20
2012,03,23,09,32,3.20
2012,03,23,09,33,3.20
2012,03,23,09,34,3.20
2012,03,23,09,35,3.20
2012,03,23,09,36,3.20
2012,03,23,09,37,3.20
2012,03,23,09,38,3.20
2012,03,23,09,39,3.20
2012,03,23,09,40,3.20
2012,03,23,09,41,3.30
2012,03,23,09,42,3.30
2012,03,23,09,43,3.30
2012,03,23,09,44,3.30
2012,03,23,09,45,3.40
2012,03,23,09,46,3.40
2012,03,23,09,47,3.40
2012,03,23,09,48,3.40
2012,03,23,09,49,3.40
2012,03,23,09,50,3.40
2012,03,23,09,51,3.50
2012,03,23,09,52,3.50
2012,03,23,09,53,3.50
2012,03,23,09,54,3.50
2012,03,23,09,55,3.50
2012,03,23,09,56,3.50
2012,03,23,09,57,3.60
2012,03,23,09,58,3.60
2012,03,23,09,59,3.60
2012,03,23,10,00,3.60
2012,03,23,10,01,3.60
2012,03,23,10,02,3.60
2012,03,23,10,03,3.60
2012,03,23,10,04,3.50
2012,03,23,10,05,3.50
2012,03,23,10,06,3.50
2012,03,23,10,07,3.40
2012,03,23,10,08,3.40
2012,03,23,10,09,3.40
2012,03,23,10,10,3.40
2012,03,23,10,11,3.40
2012,03,23,10,12,3.40
2012,03,23,10,13,3.40
2012,03,23,10,14,3.50
2012,03,23,10,15,3.50
2012,03,23,10,16,3.50
2012,03,23,10,17,3.60
2012,03,23,10,18,3.60
2012,03,23,10,19,3.60
2012,03,23,10,20,3.70
2012,03,23,10,21,3.70
2012,03,23,10,22,3.80
2012,03,23,10,23,3.80
2012,03,23,10,24,3.90
2012,03,23,10,25,4.00
2012,03,23,10,26,4.00
2012,03,23,10,27,4.10
2012,03,23,10,28,4.20
2012,03,23,10,29,4.30
2012,03,23,10,30,4.30
2012,03,23,10,31,4.40
2012,03,23,10,32,4.40
2012,03,23,10,33,4.40
2012,03,23,10,34,4.40
2012,03,23,10,35,4.40
2012,03,23,10,36,4.50
2012,03,23,10,37,4.50
2012,03,23,10,38,4.60
2012,03,23,10,39,4.60
2012,03,23,10,40,4.70
2012,03,23,10,41,4.80
2012,03,23,10,42,4.90
2012,03,23,10,43,4.90
2012,03,23,10,44,5.00
2012,03,23,10,45,5.10
2012,03,23,10,46,5.10
2012,03,23,10,47,5.10
2012,03,23,10,48,5.10
2012,03,23,10,49,5.10
2012,03,23,10,50,5.10
2012,03,23,10,51,5.10
2012,03,23,10,52,5.10
2012,03,23,10,53,5.20
2012,03,23,10,54,5.20
2012,03,23,10,55,5.20
2012,03,23,10,56,5.20
2012,03,23,10,57,5.20
2012,03,23,10,58,5.30
2012,03,23,10,59,5.30
2012,03,23,11,00,5.30
2012,03,23,11,01,5.30
2012,03,23,11,02,5.30
2012,03,23,11,03,5.30
2012,03,23,11,04,5.30
2012,03,23,11,05,5.30
2012,03,23,11,06,5.30
2012,03,23,11,07,5.30
2012,03,23,11,08,5.30
2012,03,23,11,09,5.30
2012,03,23,11,10,5.30
2012,03,23,11,11,5.30
2012,03,23,11,12,5.30
2012,03,23,11,13,5.30
2012,03,23,11,14,5.30
2012,03,23,11,15,5.30
2012,03,23,11,16,5.30
2012,03,23,11,17,5.30
2012,03,23,11,18,5.30
2012,03,23,11,19,5.40
2012,03,23,11,20,5.40
2012,03,23,11,21,5.40
2012,03,23,11,22,5.50
2012,03,23,11,23,5.50
2012,03,23,11,24,5.60
2012,03,23,11,25,5.60
2012,03,23,11,26,5.70
2012,03,23,11,27,5.80
2012,03,23,11,28,5.80
2012,03,23,11,29,5.90
2012,03,23,11,30,6.00
2012,03,23,11,31,6.00
2012,03,23,11,32,6.10
2012,03,23,11,33,6.10
2012,03,23,11,34,6.00
2012,03,23,11,35,6.00
2012,03,23,11,36,6.00
2012,03,23,11,37,6.00
2012,03,23,11,38,6.10
2012,03,23,11,39,6.10
2012,03,23,11,40,6.10
2012,03,23,11,41,6.10
2012,03,23,11,42,6.10
2012,03,23,11,43,6.10
2012,03,23,11,44,6.10
2012,03,23,11,45,6.20
2012,03,23,11,46,6.20
2012,03,23,11,47,6.20
2012,03,23,11,48,6.30
2012,03,23,11,49,6.30
2012,03,23,11,50,6.40
2012,03,23,11,51,6.40
2012,03,23,11,52,6.40
2012,03,23,11,53,6.50
2012,03,23,11,54,6.50
2012,03,23,11,55,6.50
2012,03,23,11,56,6.50
2012,03,23,11,57,6.50
2012,03,23,11,58,6.40
2012,03,23,11,59,6.40
2012,03,23,12,00,6.40
2012,03,23,12,01,6.40
2012,03,23,12,02,6.40
2012,03,23,12,03,6.40
2012,03,23,12,04,6.40
2012,03,23,12,05,6.40
2012,03,23,12,06,6.40
2012,03,23,12,07,6.50
2012,03,23,12,08,6.50
2012,03,23,12,09,6.50
2012,03,23,12,10,6.40
2012,03,23,12,11,6.40
2012,03,23,12,12,6.40
2012,03,23,12,13,6.40
2012,03,23,12,14,6.40
2012,03,23,12,15,6.50
2012,03,23,12,16,6.50
2012,03,23,12,17,6.50
2012,03,23,12,18,6.60
2012,03,23,12,19,6.60
2012,03,23,12,20,6.60
2012,03,23,12,21,6.70
2012,03,23,12,22,6.70
2012,03,23,12,23,6.70
2012,03,23,12,24,6.70
2012,03,23,12,25,6.70
2012,03,23,12,26,6.70
2012,03,23,12,27,6.70
2012,03,23,12,28,6.70
2012,03,23,12,29,6.70
2012,03,23,12,30,6.70
2012,03,23,12,31,6.70
2012,03,23,12,32,6.80
2012,03,23,12,33,6.90
2012,03,23,12,34,6.90
2012,03,23,12,35,7.00
2012,03,23,12,36,7.10
2012,03,23,12,37,7.20
2012,03,23,12,38,7.20
2012,03,23,12,39,7.20
2012,03,23,12,40,7.20
2012,03,23,12,41,7.20
2012,03,23,12,42,7.20
2012,03,23,12,43,7.10
2012,03,23,12,44,7.10
2012,03,23,12,45,7.10
2012,03,23,12,46,7.10
2012,03,23,12,47,7.10
2012,03,23,12,48,7.10
2012,03,23,12,49,7.20
2012,03,23,12,50,7.20
2012,03,23,12,51,7.20
2012,03,23,12,52,7.20
2012,03,23,12,53,7.20
2012,03,23,12,54,7.20
2012,03,23,12,55,7.20
2012,03,23,12,56,7.20
2012,03,23,12,57,7.20
2012,03,23,12,58,7.30
2012,03,23,12,59,7.30
2012,03,23,13,00,7.40
2012,03,23,13,01,7.30
2012,03,23,13,02,7.30
2012,03,23,13,03,7.30
2012,03,23,13,04,7.30
2012,03,23,13,05,7.40
2012,03,23,13,06,7.40
2012,03,23,13,07,7.50
2012,03,23,13,08,7.50
2012,03,23,13,09,7.50
2012,03,23,13,10,7.50
2012,03,23,13,11,7.40
2012,03,23,13,12,7.40
2012,03,23,13,13,7.40
2012,03,23,13,14,7.40
2012,03,23,13,15,7.40
2012,03,23,13,16,7.40
2012,03,23,13,17,7.40
2012,03,23,13,18,7.40
2012,03,23,13,19,7.50
2012,03,23,13,20,7.50
2012,03,23,13,21,7.50
2012,03,23,13,22,7.60
2012,03,23,13,23,7.60
2012,03,23,13,24,7.60
2012,03,23,13,25,7.70
2012,03,23,13,26,7.70
2012,03,23,13,27,7.80
2012,03,23,13,28,7.80
2012,03,23,13,29,7.90
2012,03,23,13,30,8.00
2012,03,23,13,31,8.00
2012,03,23,13,32,8.10
2012,03,23,13,33,8.20
2012,03,23,13,34,8.20
2012,03,23,13,35,8.20
2012,03,23,13,36,8.10
2012,03,23,13,37,8.10
2012,03,23,13,38,8.00
2012,03,23,13,39,8.00
2012,03,23,13,40,8.00
2012,03,23,13,41,8.00
2012,03,23,13,42,8.10
2012,03,23,13,43,8.20
2012,03,23,13,44,8.30
2012,03,23,13,45,8.30
2012,03,23,13,46,8.30
2012,03,23,13,47,8.40
2012,03,23,13,48,8.50
2012,03,23,13,49,8.60
2012,03,23,13,50,8.60
2012,03,23,13,51,8.60
2012,03,23,13,52,8.60
2012,03,23,13,53,8.70
2012,03,23,13,54,8.70
2012,03,23,13,55,8.60
2012,03,23,13,56,8.60
2012,03,23,13,57,8.50
2012,03,23,13,58,8.50
2012,03,23,13,59,8.50
2012,03,23,14,00,8.50
2012,03,23,14,01,8.40
2012,03,23,14,02,8.40
2012,03,23,14,03,8.30
2012,03,23,14,04,8.30
2012,03,23,14,05,8.20
2012,03,23,14,06,8.20
2012,03,23,14,07,8.20
2012,03,23,14,08,8.20
2012,03,23,14,09,8.30
2012,03,23,14,10,8.30
2012,03,23,14,11,8.30
2012,03,23,14,12,8.30
2012,03,23,14,13,8.40
2012,03,23,14,14,8.50
2012,03,23,14,15,8.60
2012,03,23,14,16,8.80
2012,03,23,14,17,8.90
2012,03,23,14,18,9.00
2012,03,23,14,19,9.00
2012,03,23,14,20,9.00
2012,03,23,14,21,8.90
2012,03,23,14,22,8.90
2012,03,23,14,23,8.90
2012,03,23,14,24,8.90
2012,03,23,14,25,8.90
2012,03,23,14,26,8.80
2012,03,23,14,27,8.80
2012,03,23,14,28,8.80
2012,03,23,14,29,8.80
2012,03,23,14,30,8.90
2012,03,23,14,31,9.10
2012,03,23,14,32,9.30
2012,03,23,14,33,9.40
2012,03,23,14,34,9.40
2012,03,23,14,35,9.40
2012,03,23,14,36,9.40
2012,03,23,14,37,9.50
2012,03,23,14,38,9.60
2012,03,23,14,39,9.70
2012,03,23,14,40,9.80
2012,03,23,14,41,9.80
2012,03,23,14,42,9.90
2012,03,23,14,43,10.00
2012,03,23,14,44,10.10
2012,03,23,14,45,10.20
2012,03,23,14,46,10.20
2012,03,23,14,47,10.20
2012,03,23,14,48,10.20
2012,03,23,14,49,10.10
2012,03,23,14,50,10.10
2012,03,23,14,51,10.20
2012,03,23,14,52,10.20
2012,03,23,14,53,10.30
2012,03,23,14,54,10.30
2012,03,23,14,55,10.30
2012,03,23,14,56,10.20
2012,03,23,14,57,10.20
2012,03,23,14,58,10.20
2012,03,23,14,59,10.10
2012,03,23,15,00,10.10
2012,03,23,15,01,10.00
2012,03,23,15,02,10.00
2012,03,23,15,03,9.90
2012,03,23,15,04,9.90
2012,03,23,15,05,9.90
2012,03,23,15,06,9.80
2012,03,23,15,07,9.70
2012,03,23,15,08,9.70
2012,03,23,15,09,9.80
2012,03,23,15,10,9.80
2012,03,23,15,11,9.80
2012,03,23,15,12,9.90
2012,03,23,15,13,10.00
2012,03,23,15,14,10.20
2012,03,23,15,15,10.30
2012,03,23,15,16,10.40
2012,03,23,15,17,10.50
2012,03,23,15,18,10.60
2012,03,23,15,19,10.60
2012,03,23,15,20,10.60
2012,03,23,15,21,10.70
2012,03,23,15,22,10.70
2012,03,23,15,23,10.70
2012,03,23,15,24,10.80
2012,03,23,15,25,10.70
2012,03,23,15,26,10.60
2012,03,23,15,27,10.60
2012,03,23,15,28,10.60
2012,03,23,15,29,10.60
2012,03,23,15,30,10.70
2012,03,23,15,31,10.90
2012,03,23,15,32,11.00
2012,03,23,15,33,11.10
2012,03,23,15,34,11.10
2012,03,23,15,35,11.10
2012,03,23,15,36,11.10
2012,03,23,15,37,11.00
2012,03,23,15,38,11.00
2012,03,23,15,39,10.90
2012,03,23,15,40,10.90
2012,03,23,15,41,10.90
2012,03,23,15,42,10.90
2012,03,23,15,43,10.90
2012,03,23,15,44,11.00
2012,03,23,15,45,11.00
2012,03,23,15,46,11.00
2012,03,23,15,47,11.00
2012,03,23,15,48,11.00
2012,03,23,15,49,10.90
2012,03,23,15,50,10.80
2012,03,23,15,51,10.80
2012,03,23,15,52,10.80
2012,03,23,15,53,10.80
2012,03,23,15,54,10.80
2012,03,23,15,55,10.80
2012,03,23,15,56,10.80
2012,03,23,15,57,10.80
2012,03,23,15,58,10.80
2012,03,23,15,59,10.80
2012,03,23,16,00,10.80
2012,03,23,16,01,10.80
2012,03,23,16,02,10.80
2012,03,23,16,03,10.80
2012,03,23,16,04,10.80
2012,03,23,16,05,10.80
2012,03,23,16,06,10.80
2012,03,23,16,07,10.90
2012,03,23,16,08,10.90
2012,03,23,16,09,10.90
2012,03,23,16,10,10.90
2012,03,23,16,11,11.00
2012,03,23,16,12,10.90
2012,03,23,16,13,10.90
2012,03,23,16,14,10.90
2012,03,23,16,15,10.90
2012,03,23,16,16,10.90
2012,03,23,16,17,10.90
2012,03,23,16,18,11.00
2012,03,23,16,19,11.10
2012,03,23,16,20,11.10
2012,03,23,16,21,11.00
2012,03,23,16,22,11.00
2012,03,23,16,23,10.90
2012,03,23,16,24,10.80
2012,03,23,16,25,10.70
2012,03,23,16,26,10.60
2012,03,23,16,27,10.60
2012,03,23,16,28,10.60
2012,03,23,16,29,10.60
2012,03,23,16,30,10.60
2012,03,23,16,31,10.60
2012,03,23,16,32,10.50
2012,03,23,16,33,10.60
2012,03,23,16,34,10.60
2012,03,23,16,35,10.50
2012,03,23,16,36,10.50
2012,03,23,16,37,10.50
2012,03,23,16,38,10.60
2012,03,23,16,39,10.50
2012,03,23,16,40,10.50
2012,03,23,16,41,10.60
2012,03,23,16,42,10.60
2012,03,23,16,43,10.60
2012,03,23,16,44,10.70
2012,03,23,16,45,10.80
2012,03,23,16,46,10.80
2012,03,23,16,47,10.80
2012,03,23,16,48,10.90
2012,03,23,16,49,11.00
2012,03,23,16,50,11.10
2012,03,23,16,51,11.10
2012,03,23,16,52,11.10
2012,03,23,16,53,11.00
2012,03,23,16,54,11.00
2012,03,23,16,55,10.90
2012,03,23,16,56,10.90
2012,03,23,16,57,11.00
2012,03,23,16,58,11.00
2012,03,23,16,59,10.90
2012,03,23,17,00,10.90
2012,03,23,17,01,10.90
2012,03,23,17,02,10.90
2012,03,23,17,03,10.90
2012,03,23,17,04,10.90
2012,03,23,17,05,10.90
2012,03,23,17,06,10.90
2012,03,23,17,07,10.80
2012,03,23,17,08,10.80
2012,03,23,17,09,10.80
2012,03,23,17,10,10.90
2012,03,23,17,11,10.90
2012,03,23,17,12,10.90
2012,03,23,17,13,10.90
2012,03,23,17,14,10.90
2012,03,23,17,15,10.80
2012,03,23,17,16,10.80
2012,03,23,17,17,10.70
2012,03,23,17,18,10.60
2012,03,23,17,19,10.60
2012,03,23,17,20,10.60
2012,03,23,17,21,10.50
2012,03,23,17,22,10.50
2012,03,23,17,23,10.40
2012,03,23,17,24,10.40
2012,03,23,17,25,10.30
2012,03,23,17,26,10.30
2012,03,23,17,27,10.30
2012,03,23,17,28,10.30
2012,03,23,17,29,10.30
2012,03,23,17,30,10.20
2012,03,23,17,31,10.30
2012,03,23,17,32,10.30
2012,03,23,17,33,10.30
2012,03,23,17,34,10.30
2012,03,23,17,35,10.30
2012,03,23,17,36,10.30
2012,03,23,17,37,10.30
2012,03,23,17,38,10.20
2012,03,23,17,39,10.10
2012,03,23,17,40,10.10
2012,03,23,17,41,10.00
2012,03,23,17,42,9.90
2012,03,23,17,43,9.90
2012,03,23,17,44,9.80
2012,03,23,17,45,9.80
2012,03,23,17,46,9.80
2012,03,23,17,47,9.80
2012,03,23,17,48,9.80
2012,03,23,17,49,9.90
2012,03,23,17,50,9.90
2012,03,23,17,51,9.90